Wautoma, WI

7:32 AM CST on December 14, 2017 (GMT -0600)
Wautoma

Weather History for KY50 - July, 2013

Change the Weather History Date:

Thursday, July 4, 2013

  Actual Average (KPCZ) Record (KPCZ)
Temperature  
Mean Temperature 68 °F -  
Max Temperature 82 °F 80 °F 100 °F (2012)
Min Temperature 55 °F 57 °F 43 °F (1967)
Cooling Degree Days 4    
Growing Degree Days 18 (Base 50)    
Moisture  
Dew Point 57 °F    
Average Humidity 80    
Maximum Humidity 100    
Minimum Humidity 39    
Precipitation  
Precipitation 0.00 in - - ()
Sea Level Pressure  
Sea Level Pressure 30.04 in    
Wind  
Wind Speed 2 mph (SSW)    
Max Wind Speed 10 mph    
Max Gust Speed -    
Visibility 6 miles    
Events Fog    
Averages and records for this station are not official NWS values.
T = Trace of Precipitation, MM = Missing Value Source: NWS Daily Summary

Daily Weather History Graph

Daily Weather History Graph

Search for Another Location

Airport or City:

Trip Planner

Search our weather history database for the weather conditions in past years. The results will help you decide how hot, cold, wet, or windy it might be!

Date:

Astronomy

Jul. 04, 2013 Rise Set
Actual Time 5:19 AM CDT 8:43 PM CDT
Civil Twilight 4:44 AM CDT 9:19 PM CDT
Nautical Twilight 3:57 AM CDT 10:05 PM CDT
Astronomical Twilight 2:57 AM CDT 11:04 PM CDT
Moon 2:39 AM CDT (7/4) 5:45 PM CDT (7/4)
Length of Visible Light 16h 35m
Length of Day
15h 23m
Waning Crescent, 11% of the Moon is Illuminated
Jul 4
Waning Crescent
Jul 8
New
Jul 15
First Quarter
Jul 22
Full
Jul 29
Last Quarter

Hourly Weather History & Observations

Time (CDT) Temp. Heat Index Dew Point Humidity Pressure Visibility Wind Dir Wind Speed Gust Speed Precip Events Conditions
12:37 AM 59.0 °F - 59.0 °F 100% 30.06 in 6.0 mi Calm Calm - N/A   Mostly Cloudy
12:56 AM 59.0 °F - 59.0 °F 100% 30.04 in 6.0 mi Calm Calm - N/A   Overcast
1:40 AM 59.0 °F - 59.0 °F 100% 30.05 in 5.0 mi Calm Calm - N/A   Mostly Cloudy
1:56 AM 59.0 °F - 59.0 °F 100% 30.04 in 6.0 mi Calm Calm - N/A   Overcast
2:56 AM 59.0 °F - 59.0 °F 100% 30.04 in 6.0 mi Calm Calm - N/A   Overcast
3:03 AM 60.8 °F - 60.8 °F 100% 30.05 in 6.0 mi Calm Calm - N/A   Overcast
3:56 AM 59.0 °F - 59.0 °F 100% 30.03 in 5.0 mi Calm Calm - N/A   Mostly Cloudy
4:56 AM 55.9 °F - 55.9 °F 100% 30.04 in 1.8 mi Calm Calm - N/A   Mostly Cloudy
5:02 AM 55.4 °F - 55.4 °F 100% 30.06 in 1.0 mi WNW 3.5 mph - N/A   Mist
5:09 AM 55.4 °F - 55.4 °F 100% 30.06 in 1.5 mi Calm Calm - N/A   Mostly Cloudy
5:15 AM 55.4 °F - 55.4 °F 100% 30.06 in 3.0 mi Calm Calm - N/A   Partly Cloudy
5:24 AM 55.4 °F - 55.4 °F 100% 30.07 in 2.5 mi Calm Calm - N/A   Mostly Cloudy
5:26 AM 55.4 °F - 55.4 °F 100% 30.06 in 1.0 mi Calm Calm - N/A   Mostly Cloudy
5:29 AM 55.4 °F - 55.4 °F 100% 30.06 in 0.5 mi Calm Calm - N/A Fog Fog
5:36 AM 55.4 °F - 55.4 °F 100% 30.07 in 0.2 mi Calm Calm - N/A Fog Fog
5:56 AM 55.9 °F - 55.9 °F 100% 30.06 in 0.8 mi Calm Calm - N/A   Overcast
5:58 AM 55.4 °F - 55.4 °F 100% 30.07 in 2.5 mi Calm Calm - N/A   Overcast
6:19 AM 57.2 °F - 57.2 °F 100% 30.07 in 3.0 mi Calm Calm - N/A   Overcast
6:56 AM 59.0 °F - 59.0 °F 100% 30.08 in 4.0 mi Calm Calm - N/A   Overcast
7:13 AM 62.6 °F - 62.6 °F 100% 30.08 in 4.0 mi Calm Calm - N/A   Mostly Cloudy
7:56 AM 66.9 °F - 59.9 °F 78% 30.07 in 8.0 mi SW 5.8 mph - N/A   Scattered Clouds
8:56 AM 70.9 °F - 57.9 °F 63% 30.06 in 10.0 mi SSW 5.8 mph - N/A   Scattered Clouds
9:56 AM 73.9 °F - 56.8 °F 55% 30.05 in 10.0 mi South 5.8 mph - N/A   Scattered Clouds
10:10 AM 75.2 °F - 57.2 °F 53% 30.06 in 10.0 mi SSW 8.1 mph - N/A   Mostly Cloudy
10:56 AM 77.9 °F - 56.8 °F 48% 30.04 in 10.0 mi WSW 6.9 mph - N/A   Mostly Cloudy
11:56 AM 79.0 °F - 56.8 °F 46% 30.04 in 10.0 mi South 10.4 mph - N/A   Overcast
12:56 PM 79.9 °F - 54.9 °F 42% 30.03 in 10.0 mi South 8.1 mph - N/A   Mostly Cloudy
1:56 PM 82.9 °F 82.1 °F 55.9 °F 39% 30.01 in 10.0 mi SSW 8.1 mph - N/A   Mostly Cloudy
2:56 PM 81.9 °F 81.2 °F 54.9 °F 39% 30.01 in 10.0 mi SSE 5.8 mph - N/A   Mostly Cloudy
3:56 PM 82.9 °F 82.4 °F 56.8 °F 41% 30.00 in 10.0 mi South 9.2 mph - N/A   Overcast
4:56 PM 81.0 °F 80.8 °F 55.9 °F 42% 30.01 in 10.0 mi SSW 8.1 mph - N/A   Overcast
5:56 PM 79.9 °F - 56.8 °F 45% 29.99 in 10.0 mi South 6.9 mph - N/A   Overcast
6:56 PM 79.9 °F - 55.9 °F 44% 30.00 in 10.0 mi South 6.9 mph - N/A   Overcast
7:56 PM 77.0 °F - 57.9 °F 52% 29.99 in 10.0 mi South 4.6 mph - N/A   Overcast
8:56 PM 70.0 °F - 59.0 °F 68% 29.98 in 10.0 mi SE 3.5 mph - N/A   Overcast
9:56 PM 68.0 °F - 59.0 °F 73% 30.00 in 10.0 mi SE 3.5 mph - N/A   Mostly Cloudy
10:56 PM 61.9 °F - 59.0 °F 90% 30.01 in 10.0 mi Calm Calm - N/A   Scattered Clouds
11:05 PM 62.6 °F - 59.0 °F 88% 30.03 in 10.0 mi Calm Calm - N/A   Mostly Cloudy
11:12 PM 60.8 °F - 59.0 °F 94% 30.03 in 7.0 mi Calm Calm - N/A   Scattered Clouds
11:56 PM 59.9 °F - 57.9 °F 93% 30.02 in 10.0 mi Calm Calm - N/A   Partly Cloudy